| time (UTC) | temp C | wind direction | speed KPH | gust KPH | rain 1hr cm | rain 24hr cm | rain mn cm | humidity % | barometer mb |
| 20260508132824 | 3 | 91 | 0.0 | 0.0 | 0.00 | 0.00 | 0.00 | 67 | 1015.5 |
| 20260508130645 | 2 | 91 | 0.0 | 0.0 | 0.00 | 0.00 | 0.00 | 71 | 1015.1 |
| 20260508125623 | 1 | 91 | 0.0 | 0.0 | 0.00 | 0.00 | 0.00 | 72 | 1015.0 |
| 20260508123456 | 0 | 91 | 0.0 | 0.0 | 0.00 | 0.00 | 0.00 | 72 | 1014.6 |
| 20260508122427 | 0 | 91 | 0.0 | 0.0 | 0.00 | 0.00 | 0.00 | 72 | 1014.6 |
| 20260508121416 | 0 | 91 | 0.0 | 0.0 | 0.00 | 0.00 | 0.00 | 71 | 1014.4 |
| 20260508115231 | 0 | 91 | 0.0 | 0.0 | 0.00 | 0.00 | 0.00 | 70 | 1013.9 |
| 20260508114222 | 1 | 91 | 0.0 | 0.0 | 0.00 | 0.00 | 0.00 | 70 | 1013.9 |
| 20260508112135 | 1 | 93 | 0.0 | 0.0 | 0.00 | 0.00 | 0.00 | 70 | 1013.7 |
| 20260508111126 | 1 | 92 | 0.0 | 0.0 | 0.00 | 0.00 | 0.00 | 69 | 1013.6 |
| 20260508110053 | 1 | 92 | 0.0 | 0.0 | 0.00 | 0.00 | 0.00 | 69 | 1013.4 |
| 20260508105055 | 1 | 92 | 0.0 | 0.0 | 0.00 | 0.00 | 0.00 | 69 | 1013.3 |
| 20260508104030 | 1 | 92 | 0.0 | 0.0 | 0.00 | 0.00 | 0.00 | 68 | 1013.2 |
| 20260508103040 | 1 | 92 | 0.0 | 0.0 | 0.00 | 0.00 | 0.00 | 68 | 1013.0 |
| 20260508102017 | 2 | 92 | 0.0 | 0.0 | 0.00 | 0.00 | 0.00 | 67 | 1012.9 |
| 20260508101012 | 2 | 92 | 0.0 | 0.0 | 0.00 | 0.00 | 0.00 | 68 | 1012.8 |
| 20260508095940 | 2 | 92 | 0.0 | 0.0 | 0.00 | 0.00 | 0.00 | 67 | 1012.7 |
| 20260508094940 | 2 | 92 | 0.0 | 0.0 | 0.00 | 0.00 | 0.00 | 67 | 1012.5 |
| 20260508093927 | 2 | 92 | 0.0 | 0.0 | 0.00 | 0.00 | 0.00 | 67 | 1012.5 |
| 20260508084857 | 2 | 148 | 0.0 | 0.0 | 0.00 | 0.00 | 0.00 | 90 | 1013.1 |
| 20260508083854 | 3 | 132 | 0.0 | 0.0 | 0.00 | 0.00 | 0.00 | 90 | 1013.1 |
| 20260508081746 | 3 | 132 | 0.0 | 0.0 | 0.00 | 0.00 | 0.00 | 89 | 1013.2 |
| 20260508080720 | 3 | 132 | 0.0 | 0.0 | 0.00 | 0.00 | 0.00 | 87 | 1013.1 |
| 20260508075700 | 4 | 133 | 0.0 | 0.0 | 0.00 | 0.00 | 0.00 | 86 | 1013.2 |
| 20260508074702 | 4 | 132 | 0.0 | 0.0 | 0.00 | 0.00 | 0.00 | 85 | 1013.2 |
| 20260508073716 | 5 | 132 | 0.0 | 0.0 | 0.00 | 0.00 | 0.00 | 83 | 1013.1 |
| 20260508071537 | 5 | 132 | 0.0 | 0.0 | 0.00 | 0.00 | 0.00 | 80 | 1013.3 |
| 20260508070534 | 5 | 133 | 0.0 | 0.0 | 0.00 | 0.00 | 0.00 | 82 | 1013.2 |
| 20260508065539 | 6 | 278 | 0.0 | 0.0 | 0.00 | 0.00 | 0.00 | 78 | 1013.3 |
| 20260508064540 | 6 | 278 | 0.0 | 0.0 | 0.00 | 0.00 | 0.00 | 76 | 1013.2 |
| 20260508061252 | 7 | 278 | 0.0 | 0.0 | 0.00 | 0.00 | 0.00 | 77 | 1013.3 |
| 20260508060314 | 6 | 148 | 0.0 | 0.0 | 0.00 | 0.00 | 0.00 | 77 | 1013.3 |
| 20260508055309 | 6 | 148 | 0.0 | 0.0 | 0.00 | 0.00 | 0.00 | 77 | 1013.3 |
| 20260508054313 | 6 | 148 | 0.0 | 0.0 | 0.00 | 0.00 | 0.00 | 78 | 1013.3 |
| 20260508052116 | 7 | 148 | 0.0 | 0.0 | 0.00 | 0.00 | 0.00 | 75 | 1013.4 |
| 20260508051050 | 7 | 148 | 0.0 | 0.0 | 0.00 | 0.00 | 0.00 | 72 | 1013.3 |
| 20260508050054 | 8 | 148 | 0.0 | 0.0 | 0.00 | 0.00 | 0.00 | 72 | 1013.4 |
| 20260508045032 | 8 | 148 | 0.0 | 0.0 | 0.00 | 0.00 | 0.00 | 69 | 1013.6 |
| 20260508044017 | 8 | 148 | 0.0 | 0.0 | 0.00 | 0.00 | 0.00 | 67 | 1013.5 |
| 20260508043015 | 8 | 49 | 0.0 | 0.0 | 0.00 | 0.00 | 0.00 | 67 | 1013.7 |
| 20260508042001 | 8 | 31 | 0.0 | 0.0 | 0.00 | 0.00 | 0.00 | 65 | 1013.4 |
| 20260508040941 | 8 | 32 | 0.0 | 0.0 | 0.00 | 0.00 | 0.00 | 67 | 1013.5 |
| 20260508035942 | 8 | 31 | 0.0 | 0.0 | 0.00 | 0.00 | 0.00 | 66 | 1013.5 |
| 20260508034935 | 9 | 32 | 0.0 | 0.0 | 0.00 | 0.00 | 0.00 | 63 | 1013.4 |
| 20260508033937 | 10 | 32 | 0.0 | 0.0 | 0.00 | 0.00 | 0.00 | 63 | 1013.4 |
| 20260508032957 | 10 | 141 | 0.0 | 0.0 | 0.00 | 0.00 | 0.00 | 62 | 1013.3 |
| 20260508031950 | 10 | 141 | 0.0 | 0.0 | 0.00 | 0.00 | 0.00 | 61 | 1013.1 |
| 20260508030917 | 11 | 141 | 0.0 | 0.0 | 0.00 | 0.00 | 0.00 | 58 | 1013.2 |
| 20260508025942 | 11 | 141 | 0.0 | 0.0 | 0.00 | 0.00 | 0.00 | 54 | 1012.9 |
| 20260508025000 | 12 | 141 | 0.0 | 0.0 | 0.00 | 0.00 | 0.00 | 51 | 1012.8 |
| 20260508023934 | 12 | 141 | 0.0 | 0.0 | 0.00 | 0.00 | 0.00 | 48 | 1012.7 |
| 20260508022939 | 13 | 145 | 0.0 | 0.0 | 0.00 | 0.00 | 0.00 | 48 | 1012.6 |
| 20260508022003 | 13 | 129 | 0.0 | 0.0 | 0.00 | 0.00 | 0.00 | 46 | 1012.6 |
| 20260508015914 | 15 | 351 | 0.0 | 3.2 | 0.00 | 0.00 | 0.00 | 40 | 1012.7 |
| 20260508014911 | 15 | 328 | 1.6 | 12.9 | 0.00 | 0.00 | 0.00 | 40 | 1012.6 |
| 20260508013840 | 15 | 336 | 6.4 | 14.5 | 0.00 | 0.00 | 0.00 | 39 | 1012.4 |
| 20260508012858 | 15 | 341 | 4.8 | 16.1 | 0.00 | 0.00 | 0.00 | 38 | 1012.4 |
| 20260508010801 | 16 | 357 | 4.8 | 14.5 | 0.00 | 0.00 | 0.00 | 36 | 1012.5 |
| 20260508005801 | 16 | 8 | 4.8 | 14.5 | 0.00 | 0.00 | 0.00 | 34 | 1012.3 |
| 20260508004806 | 16 | 4 | 3.2 | 24.1 | 0.00 | 0.00 | 0.00 | 33 | 1012.3 |
| 20260508003755 | 17 | 34 | 4.8 | 24.1 | 0.00 | 0.00 | 0.00 | 31 | 1012.4 |
| 20260508002810 | 17 | 342 | 6.4 | 14.5 | 0.00 | 0.00 | 0.00 | 30 | 1012.3 |
| 20260508001815 | 17 | 314 | 4.8 | 16.1 | 0.00 | 0.00 | 0.00 | 32 | 1012.2 |
| 20260508000825 | 17 | 354 | 4.8 | 20.9 | 0.00 | 0.00 | 0.00 | 31 | 1012.3 |
| 20260507234700 | 17 | 6 | 1.6 | 6.4 | 0.00 | 0.00 | 0.00 | 32 | 1012.1 |
| 20260507233635 | 17 | 20 | 1.6 | 9.7 | 0.00 | 0.00 | 0.00 | 31 | 1012.2 |
| 20260507232640 | 18 | 250 | 1.6 | 9.7 | 0.00 | 0.00 | 0.00 | 31 | 1012.4 |
| 20260507231631 | 18 | 25 | 0.0 | 0.0 | 0.00 | 0.00 | 0.00 | 30 | 1012.5 |
| 20260507230645 | 18 | 274 | 0.0 | 9.7 | 0.00 | 0.00 | 0.00 | 30 | 1012.6 |
| 20260507225705 | 18 | 4 | 1.6 | 1.6 | 0.00 | 0.00 | 0.00 | 32 | 1012.6 |
| 20260507224648 | 17 | 1 | 1.6 | 14.5 | 0.00 | 0.00 | 0.00 | 31 | 1012.7 |
| 20260507223701 | 17 | 47 | 3.2 | 11.3 | 0.00 | 0.00 | 0.00 | 33 | 1012.8 |
| 20260507222627 | 17 | 334 | 1.6 | 11.3 | 0.00 | 0.00 | 0.00 | 33 | 1012.9 |
| 20260507221608 | 17 | 324 | 3.2 | 11.3 | 0.00 | 0.00 | 0.00 | 33 | 1013.2 |
| 20260507220549 | 17 | 346 | 4.8 | 12.9 | 0.00 | 0.00 | 0.00 | 33 | 1013.4 |
| 20260507212254 | 18 | 321 | 4.8 | 16.1 | 0.00 | 0.00 | 0.00 | 30 | 1014.3 |
| 20260507211251 | 18 | 316 | 4.8 | 16.1 | 0.00 | 0.00 | 0.00 | 31 | 1014.6 |
| 20260507210223 | 18 | 27 | 1.6 | 8.0 | 0.00 | 0.00 | 0.00 | 31 | 1014.9 |
| 20260507205246 | 17 | 284 | 4.8 | 14.5 | 0.00 | 0.00 | 0.00 | 31 | 1015.3 |
| 20260507204217 | 16 | 33 | 3.2 | 14.5 | 0.00 | 0.00 | 0.00 | 32 | 1015.6 |
| 20260507203207 | 17 | 9 | 3.2 | 12.9 | 0.00 | 0.00 | 0.00 | 31 | 1015.9 |
| 20260507202214 | 17 | 266 | 0.0 | 8.0 | 0.00 | 0.00 | 0.00 | 31 | 1016.1 |
| 20260507201142 | 17 | 250 | 0.0 | 0.0 | 0.00 | 0.00 | 0.00 | 31 | 1016.3 |
| 20260507200133 | 17 | 243 | 1.6 | 6.4 | 0.00 | 0.00 | 0.00 | 32 | 1016.7 |
| 20260507195137 | 16 | 22 | 0.0 | 3.2 | 0.00 | 0.00 | 0.00 | 32 | 1016.8 |
| 20260507194104 | 16 | 170 | 0.0 | 0.0 | 0.00 | 0.00 | 0.00 | 32 | 1017.1 |
| 20260507193050 | 15 | 150 | 1.6 | 4.8 | 0.00 | 0.00 | 0.00 | 33 | 1017.3 |
| 20260507192109 | 15 | 28 | 1.6 | 9.7 | 0.00 | 0.00 | 0.00 | 34 | 1017.6 |
| 20260507191113 | 15 | 105 | 1.6 | 6.4 | 0.00 | 0.00 | 0.00 | 34 | 1017.9 |
| 20260507190123 | 14 | 146 | 0.0 | 3.2 | 0.00 | 0.00 | 0.00 | 34 | 1018.0 |
| 20260507185117 | 13 | 281 | 0.0 | 3.2 | 0.00 | 0.00 | 0.00 | 36 | 1018.4 |
| 20260507182941 | 13 | 294 | 0.0 | 0.0 | 0.00 | 0.00 | 0.00 | 36 | 1018.9 |
| 20260507180839 | 12 | 40 | 0.0 | 6.4 | 0.00 | 0.00 | 0.00 | 36 | 1019.4 |
| 20260507175847 | 12 | 253 | 0.0 | 8.0 | 0.00 | 0.00 | 0.00 | 37 | 1019.5 |
| 20260507173721 | 11 | 321 | 1.6 | 6.4 | 0.00 | 0.00 | 0.00 | 39 | 1019.9 |
| 20260507172718 | 11 | 358 | 1.6 | 9.7 | 0.00 | 0.00 | 0.00 | 38 | 1020.0 |
| 20260507171716 | 10 | 8 | 1.6 | 9.7 | 0.00 | 0.00 | 0.00 | 41 | 1020.2 |
| 20260507170653 | 10 | 331 | 1.6 | 8.0 | 0.00 | 0.00 | 0.00 | 41 | 1020.4 |
| 20260507165659 | 10 | 9 | 3.2 | 8.0 | 0.00 | 0.00 | 0.00 | 42 | 1020.4 |
| 20260507164649 | 10 | 351 | 4.8 | 11.3 | 0.00 | 0.00 | 0.00 | 42 | 1020.7 |
| 20260507163649 | 10 | 27 | 3.2 | 11.3 | 0.00 | 0.00 | 0.00 | 43 | 1020.9 |
| 20260507162637 | 9 | 353 | 3.2 | 11.3 | 0.00 | 0.00 | 0.00 | 44 | 1021.1 |
| 20260507160510 | 7 | 40 | 0.0 | 6.4 | 0.00 | 0.00 | 0.00 | 44 | 1021.4 |
| 20260507155514 | 7 | 293 | 0.0 | 6.4 | 0.00 | 0.00 | 0.00 | 44 | 1021.8 |
| 20260507154529 | 6 | 33 | 0.0 | 4.8 | 0.00 | 0.00 | 0.00 | 48 | 1022.1 |
| 20260507153544 | 6 | 13 | 1.6 | 6.4 | 0.00 | 0.00 | 0.00 | 48 | 1022.5 |
| 20260507152600 | 6 | 355 | 0.0 | 3.2 | 0.00 | 0.00 | 0.00 | 49 | 1022.8 |
| 20260507151623 | 6 | 163 | 0.0 | 3.2 | 0.00 | 0.00 | 0.00 | 51 | 1023.0 |
| 20260507150554 | 5 | 121 | 0.0 | 0.0 | 0.00 | 0.00 | 0.00 | 55 | 1023.5 |
| 20260507144349 | 4 | 346 | 0.0 | 0.0 | 0.00 | 0.00 | 0.00 | 59 | 1023.7 |
| 20260507143319 | 3 | 88 | 0.0 | 0.0 | 0.00 | 0.00 | 0.00 | 64 | 1023.8 |
| 20260507142249 | 3 | 124 | 0.0 | 0.0 | 0.00 | 0.03 | 0.00 | 66 | 1023.8 |
| 20260507141309 | 2 | 134 | 0.0 | 0.0 | 0.00 | 0.05 | 0.00 | 68 | 1023.9 |
| 20260507135108 | 1 | 345 | 0.0 | 0.0 | 0.00 | 0.05 | 0.00 | 72 | 1023.8 |
| 20260507134038 | 1 | 354 | 0.0 | 0.0 | 0.00 | 0.05 | 0.00 | 74 | 1023.8 |
| 20260507133054 | 0 | 120 | 0.0 | 0.0 | 0.00 | 0.05 | 0.00 | 78 | 1023.6 |